This is the latest recevied weather packets stored in our database for station/object SP6PGH-13. If no packets are shown the sender has not sent any weather packets the latest 10 day(s).
| Time | Temp. | Humidity | Pressure | Rain* | Wind** | Luminosity | Snow |
|---|---|---|---|---|---|---|---|
| 1788018383 | 25.56° C | 45% | 1000.8 hPa | - | - | 143 W/m² | - |
| 1788017481 | 25° C | 45% | 1000.9 hPa | - | - | 186 W/m² | - |
| 1788016580 | 25° C | 44% | 1000.8 hPa | - | - | 231 W/m² | - |
| 1788015680 | 25.56° C | 41% | 1000.8 hPa | - | - | 239 W/m² | - |
| 1788014779 | 25° C | 44% | 1000.8 hPa | - | - | 322 W/m² | - |
| 1788013877 | 25° C | 42% | 1000.8 hPa | - | - | 351 W/m² | - |
| 1788012977 | 25° C | 43% | 1000.7 hPa | - | - | 393 W/m² | - |
| 1788012075 | 24.44° C | 44% | 1000.7 hPa | - | - | 430 W/m² | - |
| 1788011174 | 25° C | 44% | 1000.8 hPa | - | - | 466 W/m² | - |
| 1788010273 | 24.44° C | 46% | 1000.8 hPa | - | - | 503 W/m² | - |
| 1788009372 | 25° C | 49% | 1000.8 hPa | - | - | 536 W/m² | - |
| 1788008472 | 23.89° C | 48% | 1000.7 hPa | - | - | 603 W/m² | - |
| 1788007571 | 24.44° C | 48% | 1000.6 hPa | - | - | 620 W/m² | - |
| 1788006670 | 24.44° C | 51% | 1000.6 hPa | - | - | 619 W/m² | - |
| 1788005769 | 23.33° C | 53% | 1000.4 hPa | - | - | 698 W/m² | - |
| 1788004877 | 23.89° C | 49% | 1000.6 hPa | - | - | 658 W/m² | - |
| 1788003967 | 23.89° C | 54% | 1000.6 hPa | - | - | 729 W/m² | - |
| 1788003066 | 23.33° C | 52% | 1000.6 hPa | - | - | 715 W/m² | - |
| 1788002165 | 23.89° C | 53% | 1000.7 hPa | - | - | 478 W/m² | - |
| 1788001264 | 22.78° C | 55% | 1000.7 hPa | - | - | 721 W/m² | - |
| 1788000363 | 22.78° C | 56% | 1000.7 hPa | - | - | 218 W/m² | - |
| 1787999462 | 22.78° C | 58% | 1000.6 hPa | - | - | 778 W/m² | - |
| 1787998561 | 22.78° C | 59% | 1000.6 hPa | - | - | 592 W/m² | - |
| 1787997660 | 23.33° C | 59% | 1000.6 hPa | - | - | 706 W/m² | - |
| 1787996759 | 22.22° C | 64% | 1000.6 hPa | - | - | 683 W/m² | - |
* Rain since midnight (hover to see other rain measurements)
** Current wind speed in m/s (hover to see current wind gust speed)